TimeCEST,TemperatureF,Dew PointF,Humidity,Sea Level PressureIn,VisibilityMPH,Wind Direction,Wind SpeedMPH,Gust SpeedMPH,PrecipitationIn,Events,Conditions,WindDirDegrees,DateUTC
12:00 AM,66.2,62.6,88,30.06,6.2,NE,2.3,-,N/A,,Partly Cloudy,50,2013-10-17 22:00:00
12:30 AM,64.4,62.6,94,30.04,6.2,ENE,2.3,-,N/A,,Partly Cloudy,70,2013-10-17 22:30:00
1:00 AM,64.4,60.8,88,30.04,6.2,NE,1.2,-,N/A,,Partly Cloudy,40,2013-10-17 23:00:00
1:30 AM,64.4,62.6,94,30.04,6.2,Calm,Calm,-,N/A,,Partly Cloudy,0,2013-10-17 23:30:00
2:00 AM,63,61,92,30.05,11,NW,1.2,,,,Scattered Clouds,320,2013-10-18 00:00:00
2:00 AM,64.4,60.8,88,30.04,6.2,Calm,Calm,-,N/A,,Partly Cloudy,0,2013-10-18 00:00:00
2:30 AM,64.4,62.6,94,30.04,6.2,Calm,Calm,-,N/A,,Partly Cloudy,0,2013-10-18 00:30:00
3:00 AM,62.6,60.8,94,30.04,6.2,NE,1.2,-,N/A,,Partly Cloudy,50,2013-10-18 01:00:00
3:30 AM,62.6,60.8,94,30.04,6.2,ENE,1.2,-,N/A,,Partly Cloudy,70,2013-10-18 01:30:00
4:00 AM,62.6,60.8,94,30.01,6.2,NE,1.2,-,N/A,,Partly Cloudy,50,2013-10-18 02:00:00
4:30 AM,60.8,59.0,94,30.01,6.2,Calm,Calm,-,N/A,,Partly Cloudy,0,2013-10-18 02:30:00
5:00 AM,60.8,60.8,100,30.01,6.2,NE,1.2,-,N/A,,Partly Cloudy,50,2013-10-18 03:00:00
5:30 AM,60.8,59.0,94,30.01,6.2,NE,2.3,-,N/A,,Partly Cloudy,50,2013-10-18 03:30:00
6:00 AM,60.8,59.0,94,30.01,6.2,NE,3.5,-,N/A,,Partly Cloudy,50,2013-10-18 04:00:00
6:30 AM,60.8,59.0,94,30.01,6.2,Variable,2.3,-,N/A,,Partly Cloudy,0,2013-10-18 04:30:00
7:00 AM,60.8,59.0,94,30.01,6.2,ENE,3.5,-,N/A,,Partly Cloudy,60,2013-10-18 05:00:00
7:30 AM,60.8,60.8,100,30.01,6.2,ENE,2.3,-,N/A,,Partly Cloudy,60,2013-10-18 05:30:00
8:00 AM,63,62,94,30.01,12,ENE,1.2,,,,Scattered Clouds,60,2013-10-18 06:00:00
8:00 AM,62.6,62.6,100,30.01,6.2,Variable,1.2,-,N/A,,Partly Cloudy,0,2013-10-18 06:00:00
8:30 AM,64.4,62.6,94,30.01,6.2,Calm,Calm,-,N/A,,Partly Cloudy,0,2013-10-18 06:30:00
9:00 AM,64.4,62.6,94,30.01,6.2,NNE,1.2,-,N/A,,Partly Cloudy,20,2013-10-18 07:00:00
9:30 AM,66.2,64.4,94,30.01,6.2,NNE,3.5,-,N/A,,Partly Cloudy,30,2013-10-18 07:30:00
10:00 AM,69.8,68.0,94,30.01,6.2,Variable,2.3,-,N/A,,Partly Cloudy,0,2013-10-18 08:00:00
10:30 AM,73.4,68.0,83,30.01,6.2,Variable,1.2,-,N/A,,Partly Cloudy,0,2013-10-18 08:30:00
11:00 AM,75.2,68.0,78,30.04,6.2,Variable,1.2,-,N/A,,Partly Cloudy,0,2013-10-18 09:00:00
11:30 AM,75.2,66.2,73,30.01,6.2,Variable,2.3,-,N/A,,Partly Cloudy,0,2013-10-18 09:30:00
12:00 PM,77.0,64.4,65,30.01,6.2,Variable,1.2,-,N/A,,Partly Cloudy,0,2013-10-18 10:00:00
12:30 PM,78.8,64.4,61,30.01,6.2,Variable,2.3,-,N/A,,Partly Cloudy,0,2013-10-18 10:30:00
1:00 PM,78.8,64.4,61,30.01,6.2,SE,2.3,-,N/A,,Partly Cloudy,140,2013-10-18 11:00:00
1:30 PM,80.6,66.2,61,30.01,6.2,SSE,3.5,-,N/A,,Partly Cloudy,150,2013-10-18 11:30:00
2:00 PM,82,64,45,29.99,16,SW,8.1,,,,Scattered Clouds,230,2013-10-18 12:00:00
2:00 PM,80.6,64.4,58,29.98,6.2,WSW,5.8,-,N/A,,Partly Cloudy,240,2013-10-18 12:00:00
2:30 PM,80.6,66.2,61,29.98,6.2,West,9.2,-,N/A,,Partly Cloudy,260,2013-10-18 12:30:00
3:00 PM,80.6,62.6,54,29.98,6.2,West,9.2,-,N/A,,Partly Cloudy,270,2013-10-18 13:00:00
3:30 PM,80.6,64.4,58,29.95,6.2,West,9.2,-,N/A,,Partly Cloudy,260,2013-10-18 13:30:00
4:00 PM,80.6,66.2,61,29.95,6.2,WNW,9.2,-,N/A,,Partly Cloudy,290,2013-10-18 14:00:00
4:30 PM,78.8,64.4,61,29.95,6.2,SW,8.1,-,N/A,,Partly Cloudy,220,2013-10-18 14:30:00
5:00 PM,80.6,64.4,58,29.95,6.2,Variable,8.1,-,N/A,,Partly Cloudy,0,2013-10-18 15:00:00
5:30 PM,78.8,64.4,61,29.95,6.2,South,9.2,-,N/A,,Partly Cloudy,170,2013-10-18 15:30:00
6:00 PM,78.8,60.8,54,29.95,-9999.0,South,8.1,-,N/A,,Clear,190,2013-10-18 16:00:00
6:30 PM,77.0,60.8,57,29.95,-9999.0,South,8.1,-,N/A,,Clear,190,2013-10-18 16:30:00
7:00 PM,77.0,60.8,57,29.95,6.2,Variable,2.3,-,N/A,,Partly Cloudy,0,2013-10-18 17:00:00
7:30 PM,75.2,64.4,69,29.98,6.2,Calm,Calm,-,N/A,,Partly Cloudy,0,2013-10-18 17:30:00
8:00 PM,74,64,63,29.99,12,SE,2.3,,,,Scattered Clouds,140,2013-10-18 18:00:00
8:00 PM,75.2,64.4,69,29.98,6.2,Calm,Calm,-,N/A,,Partly Cloudy,0,2013-10-18 18:00:00
8:30 PM,73.4,64.4,73,29.98,6.2,Calm,Calm,-,N/A,,Partly Cloudy,0,2013-10-18 18:30:00
9:00 PM,73.4,66.2,78,30.01,6.2,East,1.2,-,N/A,,Partly Cloudy,100,2013-10-18 19:00:00
9:30 PM,69.8,64.4,83,30.01,6.2,Variable,1.2,-,N/A,,Partly Cloudy,0,2013-10-18 19:30:00
10:00 PM,68.0,62.6,83,30.01,6.2,NE,2.3,-,N/A,,Partly Cloudy,50,2013-10-18 20:00:00
10:30 PM,66.2,62.6,88,30.01,6.2,Variable,2.3,-,N/A,,Partly Cloudy,0,2013-10-18 20:30:00
11:00 PM,64.4,60.8,88,30.01,6.2,Variable,2.3,-,N/A,,Partly Cloudy,0,2013-10-18 21:00:00
11:30 PM,64.4,60.8,88,30.01,6.2,NE,3.5,-,N/A,,Partly Cloudy,40,2013-10-18 21:30:00